FW7828 Weather Reports


time (UTC)temp
C
wind
direction
speed
KPH
gust
KPH
rain 1hr
cm
rain 24hr
cm
rain mn
cm
humidity
%
barometer
mb
20260906183115 25 32 0.0 0.0 0.00 0.00 0.00 83 1011.9
20260906182610 25 31 0.0 0.0 0.00 0.00 0.00 84 1011.9
20260906182107 25 31 0.0 0.0 0.00 0.00 0.00 83 1011.9
20260906181606 25 26 0.0 0.0 0.00 0.00 0.00 82 1012.1
20260906181102 26 59 0.0 0.0 0.00 0.00 0.00 79 1012.0
20260906180557 26 19 0.0 0.0 0.00 0.00 0.00 77 1012.1
20260906180056 27 101 1.6 1.6 0.00 0.00 0.00 73 1012.1
20260906175555 27 82 3.2 3.2 0.00 0.00 0.00 73 1012.0
20260906175050 27 99 3.2 3.2 0.00 0.00 0.00 72 1012.2
20260906174548 27 166 1.6 3.2 0.00 0.00 0.00 76 1012.1
20260906174043 27 119 3.2 3.2 0.00 0.00 0.00 73 1012.2
20260906173538 27 109 1.6 1.6 0.00 0.00 0.00 72 1012.1
20260906173035 27 26 0.0 0.0 0.00 0.00 0.00 77 1012.0
20260906172528 26 22 1.6 1.6 0.00 0.00 0.00 76 1012.2
20260906172024 26 47 0.0 0.0 0.00 0.00 0.00 76 1012.1
20260906171519 26 21 0.0 0.0 0.00 0.00 0.00 77 1012.3
20260906171014 26 26 0.0 0.0 0.00 0.00 0.00 77 1012.1
20260906170510 26 27 1.6 1.6 0.00 0.00 0.00 76 1012.2
20260906170009 26 27 0.0 0.0 0.00 0.00 0.00 79 1012.2
20260906165506 25 6 0.0 0.0 0.00 0.00 0.00 81 1012.3
20260906165001 25 5 0.0 0.0 0.00 0.00 0.00 82 1012.3
20260906164500 25 354 0.0 0.0 0.00 0.00 0.00 82 1012.6
20260906163957 25 24 0.0 0.0 0.00 0.00 0.00 83 1012.5
20260906163451 25 38 0.0 0.0 0.00 0.00 0.00 80 1012.6
20260906162950 25 38 0.0 0.0 0.00 0.00 0.00 82 1012.8
20260906162448 24 352 0.0 0.0 0.00 0.00 0.00 84 1012.7
20260906161943 25 349 1.6 1.6 0.00 0.00 0.00 88 1012.8
20260906161438 24 335 0.0 0.0 0.00 0.00 0.00 89 1012.7
20260906160937 24 334 0.0 0.0 0.00 0.00 0.00 90 1012.9
20260906160430 24 354 0.0 0.0 0.00 0.00 0.00 90 1012.9
20260906155928 24 1 0.0 0.0 0.00 0.00 0.00 89 1012.7
20260906155422 25 337 0.0 0.0 0.00 0.00 0.00 89 1012.6
20260906154919 24 333 0.0 0.0 0.00 0.00 0.00 87 1012.8
20260906154413 24 349 0.0 0.0 0.00 0.00 0.00 87 1012.8
20260906153912 24 329 0.0 0.0 0.00 0.00 0.00 86 1013.0
20260906153410 24 334 0.0 0.0 0.00 0.00 0.00 84 1012.8
20260906152906 24 42 0.0 0.0 0.00 0.00 0.00 85 1012.6
20260906152401 24 19 0.0 0.0 0.00 0.00 0.00 83 1012.8
20260906151900 24 40 0.0 0.0 0.00 0.00 0.00 82 1012.5
20260906151355 24 24 0.0 1.6 0.00 0.00 0.00 84 1012.7
20260906150851 24 350 1.6 1.6 0.00 0.00 0.00 85 1012.7
20260906150346 24 53 0.0 0.0 0.00 0.00 0.00 85 1012.5
20260906145845 23 347 0.0 0.0 0.00 0.00 0.00 85 1012.5
20260906145344 23 350 1.6 1.6 0.00 0.00 0.00 85 1012.4
20260906144840 23 19 0.0 0.0 0.00 0.00 0.00 86 1012.5
20260906144335 23 14 1.6 1.6 0.00 0.00 0.00 85 1012.4
20260906143835 23 19 0.0 0.0 0.00 0.00 0.00 84 1012.5
20260906143331 23 17 1.6 1.6 0.00 0.00 0.00 84 1012.3
20260906142827 23 0 4.8 4.8 0.00 0.00 0.00 88 1012.2
20260906142321 23 359 1.6 3.2 0.00 0.00 0.00 89 1012.4
20260906141821 23 11 1.6 1.6 0.00 0.00 0.00 89 1012.5
20260906141315 23 4 1.6 1.6 0.00 0.00 0.00 89 1012.2
20260906140814 23 10 1.6 1.6 0.00 0.00 0.00 90 1012.4
20260906140309 23 5 1.6 1.6 0.00 0.00 0.00 90 1012.3
20260906135807 23 6 1.6 1.6 0.00 0.00 0.00 90 1012.3
20260906135305 23 5 3.2 3.2 0.00 0.00 0.00 90 1012.2
20260906134757 23 2 0.0 0.0 0.00 0.00 0.00 90 1012.1
20260906134252 23 5 1.6 1.6 0.00 0.00 0.00 90 1012.2
20260906133748 23 2 1.6 1.6 0.00 0.00 0.00 89 1012.1
20260906133243 24 0 0.0 0.0 0.00 0.00 0.00 90 1011.8
20260906132739 23 2 0.0 0.0 0.00 0.00 0.00 90 1011.7
20260906132234 23 1 0.0 0.0 0.00 0.00 0.00 91 1011.7
20260906131730 23 2 0.0 0.0 0.00 0.00 0.00 91 1011.6
20260906131225 23 8 0.0 0.0 0.00 0.00 0.00 93 1011.4
20260906130720 23 4 0.0 0.0 0.00 0.00 0.00 94 1011.4
20260906130215 22 2 0.0 0.0 0.00 0.00 0.00 94 1011.4
20260906125713 22 4 0.0 0.0 0.00 0.00 0.00 95 1011.3
20260906125212 22 8 0.0 0.0 0.00 0.00 0.00 96 1011.4
20260906124707 22 355 0.0 0.0 0.00 0.00 0.00 96 1011.3
20260906124203 22 4 0.0 0.0 0.00 0.00 0.00 97 1011.4
20260906123701 22 2 0.0 0.0 0.00 0.00 0.00 97 1011.3
20260906123157 22 6 0.0 0.0 0.00 0.00 0.00 97 1011.3
20260906122656 22 10 0.0 0.0 0.00 0.00 0.00 97 1011.0
20260906122151 22 5 0.0 0.0 0.00 0.00 0.00 97 1010.9
20260906121648 22 15 0.0 0.0 0.00 0.00 0.00 97 1010.9
20260906121144 22 359 1.6 1.6 0.00 0.00 0.00 98 1010.9
20260906120639 22 356 0.0 0.0 0.00 0.00 0.00 98 1010.9
20260906120136 22 0 1.6 1.6 0.00 0.00 0.00 98 1010.8
20260906115637 22 5 0.0 0.0 0.00 0.00 0.00 98 1010.6
20260906115132 22 5 0.0 0.0 0.00 0.00 0.00 98 1010.6
20260906114625 22 5 1.6 1.6 0.00 0.00 0.00 98 1010.7
20260906114121 22 9 0.0 1.6 0.00 0.00 0.00 98 1010.4
20260906113620 22 9 0.0 1.6 0.00 0.00 0.00 98 1010.7
20260906113115 22 9 1.6 1.6 0.00 0.00 0.00 98 1010.6
20260906112614 22 9 1.6 1.6 0.00 0.00 0.00 98 1010.4
20260906112111 22 9 0.0 0.0 0.00 0.00 0.00 98 1010.6
20260906111610 22 1 0.0 0.0 0.00 0.00 0.00 98 1010.5
20260906111106 22 0 0.0 0.0 0.00 0.00 0.00 98 1010.5
20260906110606 22 4 0.0 0.0 0.00 0.00 0.00 98 1010.4
20260906110100 22 5 0.0 0.0 0.00 0.00 0.00 98 1010.3
20260906105554 22 3 0.0 0.0 0.00 0.00 0.00 98 1010.2
20260906105051 22 2 0.0 0.0 0.00 0.00 0.00 98 1010.3
20260906104549 22 22 0.0 0.0 0.00 0.00 0.00 98 1010.3
20260906104044 22 357 0.0 0.0 0.00 0.00 0.00 98 1010.3
20260906103542 22 1 0.0 0.0 0.00 0.00 0.00 98 1010.3
20260906103038 22 349 0.0 0.0 0.00 0.00 0.00 98 1010.1
20260906102537 22 354 1.6 1.6 0.00 0.00 0.00 98 1010.0
20260906102032 22 355 1.6 1.6 0.00 0.00 0.00 98 1010.0
20260906101527 22 9 1.6 1.6 0.00 0.00 0.00 98 1009.7
20260906101022 22 0 1.6 1.6 0.00 0.00 0.00 98 1009.9
20260906100518 22 5 0.0 0.0 0.00 0.00 0.00 98 1009.6
20260906100012 22 348 1.6 1.6 0.00 0.00 0.00 98 1009.7
20260906095507 22 357 3.2 3.2 0.00 0.00 0.00 98 1009.8
20260906095002 22 344 1.6 1.6 0.00 0.00 0.00 98 1009.8
20260906094501 22 358 1.6 1.6 0.00 0.00 0.00 98 1009.7
20260906093957 22 353 0.0 0.0 0.00 0.00 0.00 98 1009.8
20260906093453 22 354 0.0 0.0 0.00 0.00 0.00 98 1009.7
20260906092954 22 358 0.0 0.0 0.00 0.00 0.00 98 1009.5
20260906092453 22 358 0.0 0.0 0.00 0.00 0.00 98 1009.4
20260906091949 22 348 1.6 1.6 0.00 0.00 0.00 98 1009.4
20260906091444 22 10 0.0 0.0 0.00 0.00 0.00 98 1009.2
20260906090941 22 3 1.6 1.6 0.00 0.00 0.00 98 1009.2
20260906090436 22 359 0.0 0.0 0.00 0.00 0.00 98 1009.4
20260906085936 22 15 0.0 0.0 0.00 0.00 0.00 98 1009.3
20260906085435 22 359 0.0 0.0 0.00 0.00 0.00 98 1009.3
20260906084934 22 1 0.0 0.0 0.00 0.00 0.00 98 1009.4
20260906084430 22 357 0.0 0.0 0.00 0.00 0.00 98 1009.1
20260906083928 22 355 0.0 0.0 0.00 0.00 0.00 98 1009.2
20260906083424 22 342 0.0 0.0 0.00 0.00 0.00 98 1009.4
20260906082923 22 347 0.0 0.0 0.00 0.00 0.00 98 1009.1
20260906082419 22 348 0.0 0.0 0.00 0.00 0.00 97 1009.1
20260906081914 22 351 0.0 0.0 0.00 0.00 0.00 97 1009.2
20260906081410 22 8 0.0 0.0 0.00 0.00 0.00 98 1008.9
20260906080906 22 358 0.0 0.0 0.00 0.00 0.00 97 1009.0
20260906080402 22 357 0.0 0.0 0.00 0.00 0.00 97 1009.1
20260906075901 22 2 0.0 0.0 0.00 0.00 0.00 97 1009.0
20260906075356 22 1 0.0 0.0 0.00 0.00 0.00 97 1008.9
20260906074852 22 357 0.0 0.0 0.00 0.00 0.00 97 1008.9
20260906074351 22 338 0.0 0.0 0.00 0.00 0.00 97 1008.8
20260906073850 22 339 0.0 0.0 0.00 0.00 0.00 97 1008.9
20260906073345 22 344 0.0 0.0 0.00 0.00 0.00 97 1008.9
20260906072842 22 352 0.0 0.0 0.00 0.00 0.00 97 1008.8
20260906072337 22 333 0.0 0.0 0.00 0.00 0.00 97 1008.9
20260906071833 22 311 0.0 0.0 0.00 0.00 0.00 97 1009.1
20260906071328 22 337 0.0 0.0 0.00 0.00 0.00 97 1008.9
20260906070824 22 339 0.0 0.0 0.00 0.00 0.00 97 1009.0
20260906070319 22 333 0.0 0.0 0.00 0.00 0.00 97 1009.1
20260906065814 22 340 0.0 0.0 0.00 0.00 0.00 97 1008.8
20260906065309 22 343 0.0 0.0 0.00 0.00 0.00 97 1008.9
20260906064805 22 336 0.0 0.0 0.00 0.00 0.00 97 1008.9
20260906064301 22 346 0.0 0.0 0.00 0.00 0.00 97 1008.9
20260906063755 21 343 0.0 0.0 0.00 0.00 0.00 97 1009.0
20260906063251 22 346 0.0 0.0 0.00 0.00 0.00 97 1008.9
20260906062745 22 346 0.0 0.0 0.00 0.00 0.00 97 1009.0
20260906062245 22 337 0.0 0.0 0.00 0.00 0.00 97 1009.0
20260906061741 22 338 0.0 0.0 0.00 0.00 0.00 97 1009.2
20260906061237 22 337 0.0 0.0 0.00 0.00 0.00 97 1009.1
20260906060732 22 343 1.6 1.6 0.00 0.00 0.00 97 1009.2
20260906060230 22 341 1.6 1.6 0.00 0.00 0.00 97 1009.3
20260906055725 22 356 1.6 1.6 0.00 0.00 0.00 97 1009.3
20260906055220 22 2 0.0 0.0 0.00 0.00 0.00 97 1009.3
20260906054715 22 358 1.6 1.6 0.00 0.00 0.00 97 1009.4
20260906054210 22 353 1.6 1.6 0.00 0.00 0.00 97 1009.5
20260906053707 22 358 1.6 1.6 0.00 0.00 0.00 97 1009.2
20260906053202 22 353 1.6 1.6 0.00 0.00 0.00 97 1009.4
20260906052657 22 345 0.0 0.0 0.00 0.00 0.00 97 1009.4
20260906052153 22 342 1.6 3.2 0.00 0.00 0.00 97 1009.5
20260906051650 22 353 1.6 1.6 0.00 0.00 0.00 97 1009.3
20260906051149 22 356 1.6 1.6 0.00 0.00 0.00 97 1009.4
20260906050645 22 352 1.6 3.2 0.00 0.00 0.00 97 1009.3
20260906050140 22 6 1.6 1.6 0.00 0.00 0.00 97 1009.5
20260906045638 22 358 1.6 1.6 0.00 0.00 0.00 97 1009.6
20260906045133 22 359 1.6 1.6 0.00 0.00 0.00 97 1009.3
20260906044630 22 355 1.6 1.6 0.00 0.00 0.00 97 1009.5
20260906044125 22 353 1.6 1.6 0.00 0.00 0.00 97 1009.4
20260906043621 22 1 1.6 1.6 0.00 0.00 0.00 97 1009.4
20260906043116 22 3 1.6 1.6 0.00 0.00 0.00 97 1009.4
20260906042615 22 3 1.6 1.6 0.00 0.00 0.00 97 1009.4
20260906042109 22 6 0.0 0.0 0.00 0.00 0.00 97 1009.8
20260906041606 22 347 1.6 1.6 0.00 0.00 0.00 97 1009.7
20260906041101 22 335 0.0 0.0 0.00 0.00 0.00 97 1009.9
20260906040556 22 336 0.0 0.0 0.00 0.00 0.00 97 1009.8
20260906040051 22 339 0.0 0.0 0.00 0.00 0.00 97 1009.6
20260906035547 22 328 0.0 1.6 0.00 1.70 1.70 97 1009.9
20260906035042 22 347 0.0 0.0 0.00 1.70 1.70 97 1009.9
20260906034542 22 337 0.0 1.6 0.00 1.70 1.70 97 1009.7
20260906034037 22 351 0.0 0.0 0.00 1.70 1.70 97 1010.0
20260906033532 22 351 0.0 0.0 0.00 1.70 1.70 97 1009.9
20260906033028 22 351 0.0 0.0 0.00 1.70 1.70 97 1010.0
20260906032525 22 346 0.0 0.0 0.00 1.70 1.70 97 1010.0
20260906032024 22 11 0.0 0.0 0.00 1.70 1.70 97 1010.1
20260906031520 23 343 1.6 1.6 0.00 1.70 1.70 97 1010.0
20260906031015 23 358 0.0 0.0 0.00 1.70 1.70 97 1010.1
20260906030514 23 336 0.0 0.0 0.00 1.70 1.70 97 1010.1
20260906030015 23 329 0.0 0.0 0.00 1.70 1.70 97 1010.0
20260906025514 23 342 0.0 0.0 0.00 1.70 1.70 96 1010.2
20260906025012 23 1 0.0 0.0 0.00 1.70 1.70 96 1010.0
20260906024508 23 347 1.6 1.6 0.00 1.70 1.70 96 1010.1
20260906024007 23 344 0.0 0.0 0.00 1.70 1.70 96 1010.3
20260906023504 23 350 1.6 1.6 0.00 1.70 1.70 96 1010.1
20260906022958 23 359 0.0 1.6 0.00 1.70 1.70 96 1010.2
20260906022454 23 358 0.0 0.0 0.00 1.70 1.70 96 1010.3
20260906021949 23 6 0.0 0.0 0.00 1.70 1.70 96 1010.3
20260906021444 23 5 0.0 1.6 0.00 1.70 1.70 96 1009.9
20260906020938 23 346 0.0 1.6 0.00 1.70 1.70 96 1009.9
20260906020433 23 25 0.0 0.0 0.00 1.70 1.70 96 1009.9
20260906015927 23 358 0.0 0.0 0.00 1.70 1.70 96 1010.2
20260906015426 23 349 0.0 0.0 0.00 1.70 1.70 96 1010.4
20260906014921 23 344 0.0 1.6 0.00 1.70 1.70 96 1010.4
20260906014420 23 339 1.6 1.6 0.00 1.70 1.70 96 1010.5
20260906013917 23 355 0.0 0.0 0.00 1.70 1.70 96 1010.4
20260906013412 23 354 0.0 0.0 0.00 1.70 1.70 96 1010.4
20260906012908 23 173 0.0 0.0 0.00 1.70 1.70 96 1010.3
20260906012402 23 172 0.0 0.0 0.00 1.70 1.70 96 1010.1
20260906011901 23 189 0.0 1.6 0.00 1.70 1.70 96 1010.3
20260906011356 23 18 0.0 0.0 0.00 1.70 1.70 96 1010.1
20260906010852 23 32 0.0 0.0 0.00 1.70 1.70 95 1010.3
20260906010348 23 108 1.6 1.6 0.00 1.70 1.70 96 1009.8
20260906005843 23 337 1.6 1.6 0.00 1.70 1.70 96 1010.0
20260906005343 23 10 0.0 0.0 0.00 1.70 1.70 96 1009.8
20260906004841 23 38 0.0 0.0 0.00 1.70 1.70 96 1009.6
20260906004336 23 54 0.0 1.6 0.97 1.70 1.70 96 1009.8
20260906003831 23 79 0.0 0.0 4.45 1.70 1.70 95 1009.9
20260906003326 23 36 1.6 1.6 5.28 1.60 1.60 95 1009.7
20260906002822 23 9 3.2 3.2 1.98 0.99 0.99 95 1009.6
20260906002321 23 355 1.6 1.6 0.97 0.71 0.71 95 1009.5
20260906001818 23 355 1.6 1.6 0.79 0.64 0.64 95 1009.3
20260906001312 23 3 1.6 1.6 0.30 0.56 0.56 95 1009.4
20260906000807 23 2 3.2 3.2 0.00 0.51 0.51 95 1008.9
20260906000303 24 41 1.6 1.6 0.00 0.51 0.51 95 1009.1
20260905235757 24 8 3.2 3.2 0.00 0.51 0.51 95 1008.8
20260905235256 24 22 0.0 1.6 0.00 0.51 0.51 95 1008.4
20260905234752 24 34 1.6 1.6 0.00 0.51 0.51 95 1008.1
20260905234247 24 41 0.0 0.0 0.00 0.51 0.51 95 1008.2
20260905233742 25 24 0.0 0.0 0.00 0.51 0.51 94 1008.4
20260905233242 25 357 1.6 1.6 0.00 0.51 0.51 94 1008.4
20260905232742 24 40 0.0 0.0 0.00 0.51 0.51 94 1008.5
20260905232238 24 10 1.6 1.6 0.30 0.51 0.51 93 1008.3
20260905231733 25 51 0.0 0.0 2.59 0.51 0.51 93 1008.4
20260905231229 25 58 0.0 1.6 2.59 0.46 0.46 91 1008.4
20260905230725 25 10 3.2 3.2 0.66 0.10 0.10 89 1008.5
20260905230222 26 11 1.6 1.6 0.18 0.03 0.03 87 1008.5
20260905225722 26 21 0.0 0.0 0.00 0.00 0.00 87 1008.7
20260905225217 26 11 1.6 1.6 0.00 0.00 0.00 88 1009.0
20260905224716 26 17 0.0 1.6 0.00 0.00 0.00 88 1008.8
20260905224212 26 9 3.2 3.2 0.00 0.00 0.00 89 1008.8
20260905223708 26 10 3.2 3.2 0.00 0.00 0.00 90 1008.8
20260905223205 26 16 3.2 3.2 0.00 0.00 0.00 90 1008.7
20260905222700 26 11 1.6 1.6 0.00 0.00 0.00 90 1008.3
20260905222159 26 9 3.2 3.2 0.00 0.00 0.00 89 1008.2
20260905221655 26 358 1.6 1.6 0.00 0.00 0.00 88 1008.2
20260905221152 27 12 3.2 3.2 0.00 0.00 0.00 87 1008.1
20260905220647 27 6 1.6 3.2 0.00 0.00 0.00 85 1007.9
20260905220143 28 22 3.2 3.2 0.00 0.00 0.00 82 1007.8
20260905215643 27 25 1.6 1.6 0.00 0.00 0.00 82 1007.7
20260905215138 27 26 1.6 1.6 0.00 0.00 0.00 83 1007.6
20260905214634 27 9 1.6 1.6 0.00 0.00 0.00 83 1007.5
20260905214129 28 12 0.0 0.0 0.00 0.00 0.00 84 1007.5
20260905213624 28 28 0.0 0.0 0.00 0.00 0.00 83 1007.7
20260905213120 28 0 1.6 1.6 0.00 0.00 0.00 82 1007.8
20260905212615 28 24 0.0 0.0 0.00 0.00 0.00 81 1007.9
20260905212114 28 12 1.6 1.6 0.00 0.00 0.00 81 1008.0
20260905211609 28 9 1.6 1.6 0.00 0.00 0.00 80 1007.8
20260905211105 28 15 1.6 1.6 0.00 0.00 0.00 81 1007.7
20260905210601 28 341 1.6 1.6 0.00 0.00 0.00 81 1007.6
20260905210055 28 21 0.0 1.6 0.00 0.00 0.00 83 1007.5
20260905205555 28 34 0.0 0.0 0.00 0.00 0.00 83 1007.8
20260905205055 29 23 0.0 1.6 0.00 0.00 0.00 82 1007.7
20260905204549 30 34 0.0 0.0 0.00 0.00 0.00 79 1007.5
20260905204044 30 36 1.6 1.6 0.00 0.00 0.00 78 1007.7
20260905203544 30 97 0.0 0.0 0.00 0.00 0.00 74 1007.5
20260905203040 31 103 0.0 1.6 0.00 0.00 0.00 73 1007.6
20260905202535 31 106 1.6 1.6 0.00 0.00 0.00 73 1007.6
20260905202030 31 87 0.0 1.6 0.00 0.00 0.00 75 1007.8
20260905201526 31 86 0.0 0.0 0.00 0.00 0.00 74 1007.8
20260905201025 30 117 1.6 1.6 0.00 0.00 0.00 74 1007.9
20260905200521 31 113 1.6 1.6 0.00 0.00 0.00 73 1007.8
20260905200020 31 115 1.6 1.6 0.00 0.00 0.00 74 1008.0
20260905195514 31 23 1.6 1.6 0.00 0.00 0.00 74 1008.2
20260905195010 31 104 1.6 1.6 0.00 0.00 0.00 74 1008.0
20260905194504 31 128 1.6 1.6 0.00 0.00 0.00 73 1008.3
20260905194003 30 2 0.0 0.0 0.00 0.00 0.00 76 1008.4
20260905193458 30 111 1.6 3.2 0.00 0.00 0.00 75 1008.4
20260905192953 31 24 0.0 0.0 0.00 0.00 0.00 75 1008.4
20260905192449 31 82 1.6 1.6 0.00 0.00 0.00 75 1008.6
20260905191944 31 90 1.6 1.6 0.00 0.00 0.00 75 1008.4
20260905191438 31 133 1.6 1.6 0.00 0.00 0.00 74 1008.7
20260905190937 31 103 0.0 1.6 0.00 0.00 0.00 74 1008.6
20260905190435 31 121 1.6 1.6 0.00 0.00 0.00 73 1008.7
20260905185934 31 145 0.0 1.6 0.00 0.00 0.00 74 1008.8
20260905185429 31 124 0.0 1.6 0.00 0.00 0.00 73 1008.9
20260905184928 31 150 3.2 3.2 0.00 0.00 0.00 72 1008.7
20260905184423 31 75 3.2 3.2 0.00 0.00 0.00 74 1008.9
20260905183921 31 134 1.6 3.2 0.00 0.00 0.00 75 1009.0